Temperature
12 13 13 13 13 13 13 13 14 14 14 14 14 14 14 14 14 14 14 15 15 15 15 15 15 15 15 15 15 15 15 15 15 15 15 15 15 14 14 14 15 14 14
12 12 13 13 13 13 13 13 13 14 14 14 14 14 14 14 14 14 14 14 14 14 15 14 15 15 15 15 14 14 14 14 14 14 14 14 14 14 14 14 14 14 14
12 12 12 13 13 13 13 13 13 13 14 14 14 14 14 14 14 14 14 14 14 14 14 14 14 14 14 14 14 14 14 14 14 14 14 14 14 14 14 14 14 14 14
11 12 12 12 13 13 13 13 13 13 13 13 13 14 14 14 14 14 14 14 14 14 14 14 14 14 14 14 14 14 14 14 14 14 14 14 14 14 14 14 14 14 14
11 11 12 12 12 12 12 12 13 13 13 13 13 13 13 13 14 14 14 14 14 14 14 14 14 14 14 14 14 14 14 13 13 13 13 13 13 14 14 14 14 14 14
10 11 11 12 12 12 12 12 12 12 13 13 13 13 13 13 13 13 13 13 14 14 14 13 13 13 14 14 14 13 13 13 13 13 13 13 13 13 14 14 14 14 14
10 11 11 11 12 12 12 12 12 12 12 12 13 13 13 13 13 13 13 13 13 13 13 13 13 13 13 13 13 13 13 13 13 13 13 13 13 13 13 13 13 13 13
10 10 11 11 11 12 12 12 12 12 12 12 12 12 13 13 13 13 13 13 13 13 13 13 13 13 13 13 13 13 13 13 13 13 13 13 13 13 13 13 13 13 13
10 10 11 11 11 11 11 11 11 12 12 12 12 12 12 12 12 12 12 12 12 12 12 13 13 13 13 13 13 13 12 12 13 13 13 13 13 13 13 13 13 13 13
10 10 10 10 11 11 11 11 11 11 11 11 12 12 12 12 12 12 12 12 12 12 12 12 12 12 12 12 12 12 12 12 12 12 12 12 12 12 12 13 13 13 13
9 9 9 10 10 10 10 11 11 11 11 11 11 11 11 11 11 11 11 12 12 12 12 12 12 12 12 12 12 12 12 12 12 12 12 12 12 12 12 12 12 12 12
9 9 9 9 9 9 10 10 10 10 10 11 11 11 11 11 11 11 11 11 11 11 11 11 11 11 11 11 11 11 11 12 12 12 12 12 12 12 12 12 12 12 12
8 8 8 9 9 9 9 10 10 10 10 10 10 10 10 10 10 11 10 10 10 11 11 11 11 11 11 11 11 11 11 11 11 11 12 12 11 11 12 12 12 12 12
7 8 8 8 8 8 9 9 9 9 9 9 9 9 10 10 10 10 10 10 10 10 10 10 10 10 10 10 10 10 10 11 11 11 11 11 11 11 11 11 11 12 12
7 7 7 8 8 8 8 8 8 9 9 9 9 9 9 9 9 10 10 10 10 10 10 10 10 10 10 10 10 10 10 10 10 10 11 11 11 11 11 11 11 11 11
6 7 7 7 7 8 8 8 8 8 8 8 8 9 9 9 9 9 9 9 9 9 9 9 9 9 9 9 9 9 9 9 10 10 10 10 11 11 11 11 11 11 11
6 6 6 7 7 7 7 7 8 8 8 8 8 8 8 8 9 9 9 9 9 9 9 9 9 9 9 9 9 9 9 9 9 10 10 10 10 10 10 10 10 11 11
5 6 6 6 6 7 7 7 7 7 7 8 8 8 8 8 8 8 8 8 8 8 8 8 8 8 8 8 8 8 8 9 9 9 9 9 10 10 10 10 10 10 10
5 5 5 6 6 6 6 6 7 7 7 7 7 7 7 7 7 7 8 8 8 8 8 8 8 8 8 8 8 8 8 8 8 9 9 9 9 9 10 10 10 10 10
4 5 5 5 5 6 6 6 6 6 6 6 6 7 7 7 7 7 7 7 7 7 7 7 7 7 7 7 8 8 8 8 8 8 8 9 9 9 9 9 9 10 10
4 4 4 5 5 5 5 5 5 6 6 6 6 6 6 6 6 6 6 6 7 7 7 7 7 7 7 7 7 7 8 8 8 8 8 8 8 9 9 9 9 9 9
3 4 4 4 4 5 5 5 5 5 5 5 5 5 6 6 6 6 6 6 6 6 6 6 6 6 6 6 6 6 6 7 7 7 8 8 8 8 8 8 8 9 9
3 3 3 3 4 4 4 4 4 4 4 4 5 5 5 5 5 5 5 5 5 5 6 6 6 6 6 6 6 6 6 6 6 7 7 7 7 7 8 8 8 8 8
2 3 3 3 3 3 4 4 4 4 4 4 4 4 4 4 5 5 5 5 5 5 5 5 5 5 5 5 5 5 5 6 6 6 6 6 6 7 7 7 7 8 8
2 2 2 3 3 3 3 3 3 3 3 3 3 4 4 4 4 4 4 4 4 4 4 4 4 4 4 4 5 5 5 5 5 5 5 5 6 6 6 7 7 7 7
2 2 2 2 2 2 2 3 3 3 3 3 3 3 3 3 3 3 3 3 3 3 3 3 3 3 4 4 4 4 4 4 5 5 5 5 5 6 6 6 6 6 6
Wind_Speed
3 6 7 8 8 9 9 9 10 10 10 10 11 11 11 11 12 12 13 13 13 14 14 15 15 15 16 16 16 16 15 15 15 16 16 15 14 15 15 15 14 14 16
4 5 6 7 8 8 9 9 9 9 9 9 9 10 10 10 11 11 12 12 12 13 14 14 15 15 15 15 14 14 14 13 13 13 14 14 14 14 15 15 15 14 16
5 6 6 7 8 8 9 9 9 8 9 9 9 9 10 9 9 10 11 11 12 13 14 14 14 14 15 14 13 12 12 11 11 10 10 11 12 13 14 14 15 15 15
6 6 6 7 8 9 9 9 8 8 8 8 8 9 9 9 9 9 10 11 12 12 13 13 13 13 13 13 12 11 10 9 9 9 9 10 11 12 13 13 14 14 14
6 7 7 7 8 8 9 9 9 8 7 7 8 8 9 9 9 9 9 10 11 12 12 12 12 12 12 11 11 11 10 9 10 10 10 11 11 11 12 12 12 13 13
7 8 8 8 8 8 9 9 9 9 7 7 7 8 8 8 8 9 9 9 10 10 11 11 11 11 10 10 9 9 10 10 9 10 10 10 10 10 11 12 12 12 12
6 9 8 8 9 8 8 8 8 8 9 8 7 8 8 8 9 9 9 9 9 9 9 9 10 9 9 8 8 8 9 10 9 9 10 9 9 9 10 11 11 11 11
7 7 7 7 8 8 8 8 8 8 8 8 8 8 8 8 8 8 8 9 9 8 8 8 8 8 8 8 7 8 9 9 8 9 9 9 9 9 9 9 10 10 10
7 7 7 6 7 7 7 7 7 7 7 7 7 7 7 7 7 8 7 7 8 7 7 7 7 7 7 7 6 7 9 8 8 7 7 7 8 8 8 9 9 9 9
6 6 6 6 6 6 5 5 6 6 6 6 7 6 5 5 6 6 6 6 6 6 6 6 6 6 6 5 5 6 7 7 7 8 7 7 7 7 8 8 8 8 9
5 4 4 5 5 4 3 4 5 5 5 5 5 5 4 4 4 4 4 5 5 6 6 5 5 5 4 4 4 5 5 5 7 7 6 6 6 7 6 7 7 7 8
4 4 4 4 5 5 4 4 4 4 3 4 3 3 3 3 3 3 4 4 4 5 5 4 4 3 3 3 3 4 4 5 6 6 6 5 5 5 5 6 6 6 6
2 3 4 4 4 5 4 3 3 3 2 2 3 3 3 4 3 3 3 4 3 3 3 3 2 2 2 2 2 3 4 6 5 5 5 4 4 4 3 4 4 4 5
2 2 3 4 4 4 4 4 3 3 3 3 3 3 3 3 3 2 2 2 2 1 1 1 1 1 2 2 2 3 4 4 4 5 4 4 4 3 2 2 2 3 3
2 2 3 4 3 3 4 4 3 3 3 3 3 4 3 3 2 2 2 2 1 1 2 2 2 2 2 2 2 3 3 3 3 4 3 2 3 2 2 1 1 2 2
1 2 2 3 3 3 3 3 3 3 3 2 3 4 4 3 2 2 2 1 1 1 2 2 2 2 2 2 2 2 3 2 2 2 2 2 1 1 1 0 1 1 2
1 1 2 2 3 2 2 2 3 3 3 2 2 3 3 3 2 2 2 1 1 1 2 2 2 2 2 1 1 1 1 1 1 1 2 2 2 1 1 1 1 1 1
1 1 2 2 3 2 1 2 2 2 2 2 2 2 2 2 2 2 2 2 2 1 1 1 1 1 1 1 1 2 2 2 2 1 2 2 3 3 3 3 3 2 3
1 1 2 1 2 2 1 1 1 2 1 2 2 1 2 1 2 2 2 2 2 2 1 1 1 1 1 1 2 2 2 2 2 2 2 3 3 4 4 4 4 3 4
1 1 2 1 2 2 1 1 1 1 1 1 1 1 2 2 1 2 2 2 2 1 1 1 1 1 1 2 3 2 3 3 2 2 3 3 3 3 4 4 4 4 4
1 1 2 2 2 1 0 0 1 1 1 1 1 1 2 2 1 1 2 1 1 1 1 1 1 2 2 1 1 2 3 3 3 2 2 2 2 2 3 4 4 4 3
0 1 1 2 2 1 1 1 1 1 2 2 1 2 2 2 1 1 1 1 1 1 1 1 1 2 2 1 0 1 2 2 2 2 2 2 2 2 2 3 3 3 3
1 2 2 2 2 1 1 1 1 1 1 1 1 1 2 2 2 2 2 1 1 1 2 2 2 2 2 2 1 1 1 2 2 2 3 2 2 1 2 2 3 3 3
1 1 2 2 2 1 1 1 0 0 2 2 2 2 3 3 3 3 2 2 2 1 2 3 2 2 2 3 3 2 3 2 1 2 2 2 3 3 3 3 4 4 4
1 1 1 1 1 1 0 0 1 1 2 2 2 3 3 3 3 3 3 2 2 2 2 3 3 3 3 3 3 2 3 3 2 3 4 3 3 3 3 4 4 5 6
1 1 1 1 1 1 1 1 1 2 3 3 3 3 3 2 3 4 4 3 3 3 3 4 4 4 4 4 3 3 3 3 3 3 4 4 4 4 4 3 4 5 6
Wind_Direction
47 26 19 19 25 34 38 42 48 56 58 55 54 56 56 55 59 60 60 60 61 63 63 62 62 64 64 64 63 62 63 64 64 63 61 60 63 66 67 69 72 73 76
38 43 34 26 33 38 41 44 49 54 57 56 55 54 57 57 60 61 60 61 62 64 63 62 62 64 65 65 64 62 61 61 62 67 66 61 64 67 68 69 73 77 77
44 53 44 32 40 40 40 46 48 52 56 56 57 57 56 59 61 63 62 62 63 63 62 62 62 63 64 63 62 59 55 52 52 60 63 65 67 70 71 72 76 79 78
52 61 51 39 42 42 41 46 46 50 56 56 57 57 56 58 61 63 65 65 66 65 63 62 61 61 62 60 57 54 47 39 44 50 59 64 68 72 73 74 76 79 79
53 60 58 49 45 43 43 47 46 47 54 55 55 54 55 58 60 64 66 67 68 68 66 63 62 61 60 57 51 45 38 33 41 50 60 63 69 75 74 75 77 80 80
53 58 62 53 49 45 43 46 47 45 50 55 55 54 55 56 62 65 67 69 70 69 68 65 62 59 57 53 46 37 28 28 39 56 61 62 71 78 78 78 78 80 81
51 54 60 53 48 44 40 40 43 44 48 52 57 57 56 57 61 67 68 72 72 71 69 66 62 58 54 49 44 32 24 27 48 61 62 61 72 78 78 78 77 79 81
58 54 60 53 50 45 39 37 37 40 46 50 52 56 56 59 62 66 70 71 73 75 71 69 64 59 54 48 40 25 18 25 49 65 67 64 72 77 78 80 79 79 82
61 56 52 46 49 47 40 34 35 37 42 49 49 50 56 60 66 66 67 68 70 75 74 72 69 63 54 46 33 19 16 26 44 59 64 66 74 79 78 79 81 82 83
55 48 43 38 39 40 38 35 38 39 44 48 48 45 58 71 73 70 66 65 68 72 76 76 73 68 56 43 24 9 9 25 47 57 62 65 73 80 80 77 78 81 85
38 33 34 29 26 27 35 33 36 40 48 49 48 45 53 68 81 81 78 71 71 71 75 80 74 68 58 40 22 6 6 40 51 61 64 63 72 76 78 80 78 79 88
20 9 16 20 16 13 23 32 31 33 46 45 39 32 27 52 69 85 98 87 75 78 74 75 78 72 57 39 15 5 12 43 57 67 69 64 66 74 76 82 85 83 88
18 8 9 11 13 14 12 18 23 20 26 26 26 14 26 48 59 75 84 79 68 79 69 70 92 56 55 53 29 12 26 48 58 71 75 59 54 67 74 84 90 92 92
27 6 7 10 11 11 6 0 11 22 21 21 15 11 25 31 32 47 70 82 74 55 37 27 346 7 34 53 25 28 33 53 66 79 80 59 40 42 60 93 108 111 110
20 3 356 5 5 8 10 358 4 8 17 19 15 9 27 25 17 17 51 59 34 20 3 338 344 5 15 14 20 21 25 49 74 87 95 73 34 17 37 89 124 152 146
1 354 341 350 356 11 8 355 350 356 3 13 14 8 17 24 13 4 11 33 4 354 348 335 342 344 358 13 4 3 5 14 74 105 129 137 62 12 1 37 102 173 189
338 336 331 340 351 12 2 342 341 344 347 357 2 358 7 17 9 349 352 351 351 354 340 338 350 2 352 338 307 309 328 334 326 154 164 179 186 210 253 242 251 249 229
350 342 325 332 339 341 353 331 331 329 336 342 339 329 337 355 355 343 343 339 341 335 330 328 324 330 315 288 293 296 308 297 278 228 195 194 194 196 212 227 227 237 241
356 346 326 320 328 330 332 321 318 322 324 319 315 319 320 332 324 336 341 335 344 341 322 292 291 260 279 285 268 265 263 267 256 246 215 207 210 201 198 213 217 227 239
21 357 334 319 335 333 334 341 332 313 326 307 293 290 303 313 313 333 335 334 354 328 289 277 292 294 256 259 271 272 260 250 229 222 231 215 209 210 199 203 204 212 229
26 9 334 327 330 348 347 328 280 272 304 313 295 280 288 295 310 339 318 305 346 287 270 274 281 280 276 272 299 298 278 248 220 218 214 201 209 217 212 210 207 202 214
346 328 306 316 316 309 303 269 248 257 270 271 293 307 281 287 287 270 295 272 268 253 251 270 267 254 268 269 282 290 275 273 261 242 219 224 232 210 208 228 223 214 208
294 277 269 283 302 309 334 358 347 340 304 292 283 293 288 276 274 276 272 293 280 244 228 243 240 229 248 261 234 214 218 244 282 244 226 214 224 246 233 231 225 230 227
281 281 257 278 294 319 10 43 77 268 269 275 274 267 285 281 272 265 258 262 256 267 243 242 237 244 233 245 256 260 254 251 235 268 247 241 247 241 244 253 231 228 228
328 317 270 282 290 327 6 199 233 264 277 292 292 272 263 271 262 257 254 250 251 260 259 250 245 239 236 239 247 257 270 274 249 241 259 255 258 251 248 247 235 229 229
343 344 329 295 290 264 255 246 242 258 279 290 294 283 274 274 264 248 246 240 247 249 251 249 241 235 237 238 242 241 242 245 246 248 249 249 255 257 248 245 240 234 232
Height
1530 1530 1531 1531 1532 1532 1532 1533 1533 1533 1534 1534 1535 1535 1536 1536 1536 1537 1537 1537 1537 1537 1538 1538 1537 1537 1538 1538 1538 1538 1538 1539 1539 1539 1539 1539 1539 1539 1539 1539 1538 1538 1538
1529 1530 1530 1531 1532 1532 1533 1533 1533 1534 1534 1535 1535 1536 1536 1537 1537 1538 1538 1538 1538 1538 1538 1539 1539 1539 1539 1539 1539 1539 1540 1540 1540 1540 1540 1541 1541 1541 1541 1541 1540 1540 1540
1529 1529 1530 1531 1531 1532 1532 1533 1533 1534 1534 1535 1536 1536 1537 1537 1538 1538 1538 1539 1539 1539 1539 1540 1540 1540 1540 1540 1541 1541 1541 1542 1542 1542 1542 1542 1542 1542 1542 1542 1542 1542 1542
1529 1529 1530 1530 1531 1532 1532 1533 1533 1534 1535 1535 1536 1536 1537 1537 1538 1538 1539 1539 1539 1540 1540 1540 1540 1541 1541 1541 1542 1542 1542 1543 1543 1543 1543 1543 1543 1544 1544 1544 1544 1544 1544
1529 1529 1529 1530 1531 1532 1532 1533 1533 1534 1535 1535 1536 1536 1537 1537 1538 1538 1539 1539 1540 1540 1540 1541 1541 1541 1542 1542 1542 1543 1543 1544 1544 1544 1544 1544 1545 1545 1545 1545 1545 1546 1546
1528 1528 1529 1530 1531 1531 1532 1533 1533 1534 1535 1535 1536 1536 1537 1537 1538 1538 1539 1540 1540 1540 1541 1541 1541 1542 1542 1542 1543 1543 1544 1544 1545 1545 1545 1545 1546 1546 1546 1546 1547 1547 1547
1528 1528 1528 1529 1530 1531 1531 1532 1533 1534 1534 1535 1536 1536 1537 1537 1538 1538 1539 1540 1540 1540 1541 1541 1541 1542 1542 1543 1543 1544 1544 1545 1545 1545 1545 1546 1546 1547 1547 1547 1548 1548 1548
1527 1527 1528 1529 1529 1530 1531 1531 1532 1533 1534 1535 1536 1536 1537 1537 1538 1538 1539 1539 1540 1540 1541 1541 1541 1542 1542 1543 1543 1544 1544 1545 1545 1545 1546 1546 1547 1547 1547 1548 1548 1549 1549
1527 1527 1528 1528 1529 1529 1530 1531 1532 1532 1533 1534 1535 1536 1536 1537 1537 1538 1538 1539 1539 1540 1540 1541 1541 1541 1542 1542 1543 1544 1544 1545 1545 1545 1546 1546 1547 1547 1548 1548 1549 1549 1549
1526 1526 1527 1527 1528 1528 1529 1530 1531 1532 1532 1533 1534 1535 1535 1536 1536 1537 1538 1539 1539 1539 1540 1540 1541 1541 1541 1542 1543 1543 1544 1544 1545 1545 1546 1546 1547 1547 1548 1548 1549 1549 1550
1525 1525 1525 1525 1526 1527 1527 1528 1529 1530 1531 1532 1532 1533 1534 1535 1535 1536 1537 1538 1538 1539 1539 1540 1540 1540 1541 1542 1542 1543 1543 1544 1544 1545 1545 1546 1547 1547 1547 1548 1549 1549 1550
1523 1524 1524 1524 1524 1525 1526 1526 1527 1528 1529 1530 1530 1531 1532 1533 1534 1535 1536 1537 1537 1538 1538 1539 1539 1540 1540 1541 1542 1542 1542 1543 1543 1544 1544 1545 1546 1546 1547 1547 1548 1549 1549
1521 1522 1522 1523 1523 1523 1524 1524 1525 1526 1527 1528 1529 1530 1531 1532 1532 1533 1534 1535 1536 1536 1537 1538 1538 1539 1540 1540 1541 1541 1542 1542 1542 1543 1544 1545 1545 1546 1546 1547 1547 1548 1549
1519 1520 1520 1520 1521 1521 1522 1522 1523 1524 1525 1526 1527 1528 1529 1529 1530 1531 1532 1533 1534 1535 1535 1536 1537 1538 1539 1539 1540 1540 1541 1541 1541 1542 1542 1543 1544 1545 1545 1546 1546 1547 1548
1517 1517 1518 1518 1519 1519 1520 1520 1521 1522 1523 1524 1525 1526 1527 1527 1528 1529 1530 1531 1532 1533 1534 1535 1535 1536 1537 1538 1538 1539 1539 1540 1540 1541 1541 1542 1543 1544 1544 1545 1546 1546 1547
1515 1515 1515 1516 1516 1517 1517 1518 1519 1520 1521 1522 1523 1523 1525 1525 1526 1527 1528 1529 1530 1531 1532 1533 1533 1534 1535 1535 1536 1537 1538 1538 1539 1539 1540 1540 1541 1542 1543 1543 1544 1545 1546
1512 1513 1513 1513 1514 1514 1515 1516 1516 1517 1518 1519 1520 1521 1522 1523 1524 1525 1526 1527 1528 1529 1530 1531 1531 1532 1532 1533 1534 1535 1535 1536 1537 1537 1538 1538 1539 1540 1541 1541 1542 1543 1544
1510 1510 1510 1511 1511 1512 1512 1513 1513 1514 1515 1516 1517 1519 1519 1520 1521 1522 1523 1524 1525 1526 1527 1528 1529 1529 1530 1530 1531 1532 1533 1534 1534 1535 1535 1536 1537 1538 1538 1539 1540 1541 1542
1507 1507 1507 1508 1508 1508 1509 1510 1511 1511 1512 1513 1514 1515 1516 1517 1518 1519 1520 1521 1522 1523 1524 1525 1526 1526 1527 1528 1529 1529 1530 1531 1532 1532 1533 1534 1534 1535 1536 1537 1537 1538 1539
1504 1504 1504 1505 1505 1505 1506 1507 1508 1508 1509 1510 1511 1512 1513 1514 1515 1516 1517 1518 1519 1520 1521 1522 1523 1524 1525 1525 1526 1526 1527 1528 1529 1530 1530 1531 1532 1533 1533 1534 1535 1535 1536
1502 1501 1502 1502 1502 1502 1502 1503 1504 1504 1506 1507 1508 1509 1510 1511 1511 1512 1513 1514 1515 1517 1517 1518 1519 1521 1521 1522 1523 1523 1524 1525 1526 1526 1527 1528 1529 1530 1530 1531 1532 1532 1533
1499 1499 1499 1499 1499 1499 1500 1500 1501 1502 1502 1503 1504 1505 1506 1507 1507 1508 1509 1510 1511 1513 1514 1515 1515 1517 1518 1519 1520 1520 1520 1522 1522 1523 1524 1525 1526 1526 1527 1528 1528 1529 1530
1496 1496 1496 1496 1496 1497 1497 1497 1498 1498 1499 1500 1501 1501 1502 1503 1503 1504 1505 1506 1507 1509 1510 1511 1512 1513 1514 1515 1517 1519 1519 1518 1518 1519 1520 1521 1522 1523 1524 1524 1525 1526 1526
1494 1494 1494 1494 1494 1494 1494 1494 1494 1495 1495 1496 1497 1497 1498 1499 1499 1500 1501 1502 1503 1505 1506 1507 1508 1509 1510 1511 1513 1514 1516 1516 1516 1515 1516 1517 1518 1519 1520 1520 1521 1522 1522
1492 1492 1491 1491 1491 1491 1491 1492 1492 1492 1492 1493 1493 1494 1494 1494 1495 1496 1497 1498 1499 1500 1501 1502 1503 1504 1506 1506 1508 1509 1511 1512 1512 1512 1511 1512 1513 1514 1515 1516 1517 1517 1518
1491 1490 1489 1489 1488 1488 1488 1488 1488 1489 1489 1489 1489 1490 1490 1490 1491 1492 1493 1493 1494 1496 1496 1498 1499 1500 1501 1502 1503 1505 1506 1507 1507 1508 1507 1507 1507 1508 1510 1511 1512 1512 1513